EW9501 Weather Reports


Display with metric or nautical units.
time (UTC)temp
F
wind
direction
speed
MPH
gust
MPH
rain 1hr
in
rain 24hr
in
rain mn
in
humidity
%
barometer
mb
20260510230038 59 0.0 0.0 0.00 0.01 0.00 38 1017.4
20260510224540 60 0.0 0.0 0.00 0.01 0.00 39 1017.3
20260510223038 60 0.0 0.0 0.00 0.01 0.00 39 1017.4
20260510221533 60 0.0 0.0 0.00 0.01 0.00 39 1017.4
20260510220031 60 0.0 0.0 0.00 0.10 0.00 39 1017.1
20260510214529 62 0.0 0.0 0.00 0.10 0.00 36 1016.9
20260510213030 62 0.0 0.0 0.00 0.10 0.00 35 1016.7
20260510211532 63 0.0 0.0 0.00 0.10 0.00 36 1016.4
20260510210028 62 0.0 0.0 0.00 0.10 0.00 36 1016.4
20260510204527 62 0.0 0.0 0.00 0.10 0.00 36 1016.4
20260510203027 62 0.0 0.0 0.00 0.10 0.00 36 1016.4
20260510201526 61 0.0 0.0 0.00 0.10 0.00 37 1016.6
20260510200026 62 0.0 0.0 0.00 0.10 0.00 35 1016.7
20260510194525 60 0.0 0.0 0.00 0.10 0.00 39 1016.8
20260510193025 63 0.0 0.0 0.00 0.10 0.00 37 1016.8
20260510191527 62 0.0 0.0 0.00 0.10 0.00 38 1016.7
20260510190040 63 0.0 0.0 0.00 0.10 0.00 37 1016.6
20260510184520 61 0.0 0.0 0.00 0.10 0.00 40 1016.8
20260510183024 61 0.0 0.0 0.00 0.10 0.00 38 1016.7
20260510181519 60 0.0 0.0 0.00 0.10 0.00 39 1016.7
20260510180022 62 0.0 0.0 0.00 0.10 0.00 38 1016.4
20260510174517 60 0.0 0.0 0.00 0.10 0.00 39 1016.5
20260510173016 61 0.0 0.0 0.00 0.10 0.00 39 1016.5
20260510171516 60 0.0 0.0 0.00 0.10 0.00 40 1016.6
20260510170014 61 0.0 0.0 0.00 0.10 0.00 41 1016.7
20260510164511 59 0.0 0.0 0.00 0.10 0.00 42 1016.7
20260510163009 60 0.0 0.0 0.00 0.10 0.00 44 1016.7
20260510161511 59 0.0 0.0 0.00 0.10 0.00 42 1016.6
20260510160004 58 0.0 0.0 0.00 0.10 0.00 47 1016.5
20260510154504 57 0.0 0.0 0.00 0.10 0.00 48 1016.3
20260510153005 57 0.0 0.0 0.00 0.10 0.00 45 1016.0
20260510151559 57 0.0 0.0 0.00 0.10 0.00 54 1016.1
20260510150127 57 0.0 0.0 0.00 0.10 0.00 54 1016.0
20260510144612 56 0.0 0.0 0.00 0.10 0.00 57 1015.9
20260510143058 55 0.0 0.0 0.00 0.10 0.00 58 1015.6
20260510141555 55 0.0 0.0 0.00 0.10 0.00 56 1015.7
20260510140056 54 0.0 0.0 0.00 0.10 0.00 57 1015.6
20260510134553 54 0.0 0.0 0.00 0.10 0.00 57 1015.7
20260510133052 53 0.0 0.0 0.00 0.10 0.00 59 1015.5
20260510131550 52 0.0 0.0 0.00 0.10 0.00 62 1015.3
20260510130048 52 0.0 0.0 0.00 0.10 0.00 63 1015.2
20260510124547 52 0.0 0.0 0.00 0.10 0.00 62 1014.9
20260510123043 51 0.0 0.0 0.00 0.10 0.00 64 1014.6
20260510121542 50 0.0 0.0 0.00 0.10 0.00 68 1014.5
20260510120039 50 0.0 0.0 0.00 0.10 0.00 70 1014.3
20260510114537 50 0.0 0.0 0.00 0.10 0.00 69 1014.0
20260510113035 49 0.0 0.0 0.00 0.10 0.00 72 1013.5
20260510111537 49 0.0 0.0 0.00 0.10 0.00 75 1013.3
20260510110035 50 0.0 0.0 0.00 0.10 0.00 79 1013.0
20260510104534 49 0.0 0.0 0.00 0.10 0.00 81 1012.7
20260510103026 49 0.0 0.0 0.00 0.10 0.00 83 1012.4
20260510101524 48 0.0 0.0 0.00 0.10 0.00 85 1011.9
20260510100022 48 0.0 0.0 0.00 0.10 0.00 86 1011.5
20260510094519 48 0.0 0.0 0.00 0.10 0.00 85 1011.3
20260510093017 48 0.0 0.0 0.00 0.10 0.00 83 1011.1
20260510091524 49 0.0 0.0 0.00 0.10 0.00 82 1010.9
20260510090013 49 0.0 0.0 0.00 0.10 0.00 82 1010.8
20260510084525 50 0.0 0.0 0.00 0.10 0.00 80 1010.7
20260510083007 50 0.0 0.0 0.00 0.10 0.00 79 1010.5
20260510081514 50 0.0 0.0 0.00 0.10 0.00 79 1010.4
20260510080005 50 0.0 0.0 0.00 0.10 0.00 79 1010.1
20260510074503 50 0.0 0.0 0.00 0.10 0.00 79 1010.0
20260510073059 51 0.0 0.0 0.00 0.10 0.00 78 1009.7
20260510071600 51 0.0 0.0 0.00 0.10 0.00 78 1009.6
20260510070056 52 0.0 0.0 0.00 0.10 0.00 77 1009.2
20260510064551 53 0.0 0.0 0.00 0.10 0.00 75 1009.1
20260510063049 53 0.0 0.0 0.00 0.10 0.00 74 1009.0
20260510061556 54 0.0 0.0 0.00 0.10 0.00 73 1008.8
20260510060046 55 0.0 0.0 0.00 0.10 0.00 66 1008.7
20260510054541 56 0.0 0.0 0.00 0.10 0.00 62 1008.4
20260510053039 56 0.0 0.0 0.00 0.10 0.00 61 1008.2
20260510051540 57 0.0 0.0 0.00 0.10 0.00 61 1007.8
20260510050030 58 0.0 0.0 0.00 0.10 0.00 67 1007.5
20260510044527 58 0.0 0.0 0.00 0.10 0.00 73 1007.1
20260510043025 58 0.0 0.0 0.00 0.10 0.00 78 1006.9
20260510041532 58 0.0 0.0 0.00 0.10 0.00 81 1006.5
20260510040021 57 0.0 0.0 0.00 0.10 0.10 81 1006.2
20260510034524 58 0.0 0.0 0.00 0.10 0.10 80 1005.6
20260510033021 58 0.0 0.0 0.00 0.10 0.10 79 1005.2
20260510031519 59 0.0 0.0 0.00 0.10 0.10 77 1005.0
20260510030021 59 0.0 0.0 0.00 0.10 0.10 74 1004.9
20260510024528 60 0.0 0.0 0.00 0.10 0.10 72 1004.8
20260510023018 60 0.0 0.0 0.00 0.10 0.10 71 1004.7
20260510021517 60 0.0 0.0 0.00 0.10 0.10 71 1004.5
20260510020018 60 0.0 0.0 0.00 0.10 0.10 72 1004.3
20260510014516 60 0.0 0.0 0.00 0.10 0.10 72 1004.2
20260510013016 61 0.0 0.0 0.00 0.10 0.10 72 1004.1
20260510011516 61 0.0 0.0 0.00 0.10 0.10 73 1004.1
20260510010016 61 0.0 0.0 0.00 0.10 0.10 75 1004.0
20260510004515 60 0.0 0.0 0.00 0.10 0.10 75 1003.6
20260510003016 61 0.0 0.0 0.00 0.10 0.10 74 1003.5
20260510001514 61 0.0 0.0 0.00 0.10 0.10 73 1003.4
20260510000014 62 0.0 0.0 0.00 0.10 0.10 72 1003.4
20260509234522 62 0.0 0.0 0.00 0.10 0.10 71 1003.5
20260509233013 62 0.0 0.0 0.00 0.10 0.10 71 1003.6
20260509231512 62 0.0 0.0 0.01 0.10 0.10 72 1003.5